CAPE
13 42 24 0 0 0 0 0 0 0 2 2 3 1 0 0 0 0 0 0 0 0 0 0 2 2 1 2 2 2 2 2 2 1 1 0 0 0
32 113 47 3 3 0 0 0 0 0 1 0 0 1 1 0 0 0 0 0 0 0 0 1 2 1 1 0 2 1 1 1 1 1 1 1 1 1
11 39 136 62 0 1 0 0 0 0 0 2 1 1 2 1 1 0 1 1 1 1 1 1 1 1 0 0 0 0 0 0 0 0 0 1 0 0
6 9 22 99 25 0 0 0 0 0 0 0 3 3 2 1 1 0 1 1 0 4 1 2 1 0 0 0 0 0 0 0 0 0 0 0 0 0
1 3 13 44 4 0 0 0 0 0 0 1 2 1 1 2 2 1 1 1 0 6 4 1 2 0 0 0 0 0 0 0 0 0 0 0 0 0
3 2 3 11 4 0 0 0 0 0 1 1 3 2 2 2 2 1 0 1 1 5 3 2 2 1 0 0 0 0 0 0 0 0 0 0 0 0
1 1 1 4 23 0 0 0 0 1 1 1 1 1 1 2 2 0 0 0 1 1 2 2 1 0 0 0 0 0 0 0 0 0 0 0 1 0
0 0 0 4 2 0 0 0 0 1 1 1 2 3 3 2 0 1 1 0 0 0 0 1 0 0 0 0 0 0 0 0 0 0 1 2 2 0
0 0 0 1 0 1 0 0 0 0 0 1 2 1 4 1 1 1 0 0 0 0 0 0 0 0 0 0 0 0 0 0 0 0 0 1 0 0
0 0 1 1 0 1 1 0 1 1 0 0 0 0 0 1 0 0 0 0 0 0 0 0 0 0 0 0 0 0 0 0 0 0 0 0 0 0
0 0 0 0 1 1 0 0 0 1 1 0 0 0 1 1 0 1 1 0 0 0 0 0 0 0 0 0 0 0 0 0 0 0 0 0 0 0
1 0 1 1 1 1 0 0 1 3 1 2 1 1 2 1 0 0 0 0 0 0 0 0 0 0 0 0 0 0 0 0 0 0 0 0 0 0
0 0 1 0 0 0 1 1 1 1 1 1 1 1 0 1 0 0 0 0 0 0 0 0 0 0 0 0 0 0 0 0 0 0 0 1 0 0
1 1 0 0 0 0 0 0 0 1 1 2 2 2 1 0 0 0 0 0 0 0 0 0 0 0 0 0 0 0 0 0 0 0 0 0 0 0
1 1 0 0 0 2 0 0 1 2 2 0 0 0 1 0 0 0 0 0 0 0 0 0 0 0 0 0 0 0 0 0 0 0 0 0 0 0
0 0 1 1 1 1 1 0 1 2 1 0 0 3 3 2 0 0 0 0 0 0 0 0 0 0 0 0 0 0 0 0 0 0 0 0 0 0
1 1 1 0 0 0 0 0 0 1 1 2 0 0 2 0 0 0 0 0 0 0 0 0 0 0 0 0 0 0 0 0 0 0 0 0 0 0
0 0 0 0 0 0 0 0 0 0 0 0 1 1 0 0 0 0 0 0 0 0 0 0 0 0 0 0 0 0 0 0 0 0 0 0 0 0
0 0 0 0 0 0 0 0 0 0 0 0 0 0 0 0 0 0 0 0 0 0 0 0 0 0 0 0 0 0 0 0 0 0 0 0 0 0
0 0 0 0 0 0 0 0 0 0 0 0 0 0 0 0 0 0 0 0 0 0 0 0 0 0 0 0 0 0 0 0 0 0 0 0 0 0
0 0 0 0 0 0 0 0 0 0 0 0 0 0 0 0 0 0 0 0 0 0 0 0 0 0 0 0 0 0 0 0 0 0 0 0 0 0
0 0 0 0 0 0 0 0 0 0 0 0 0 0 0 0 0 0 0 0 0 0 0 0 0 0 0 0 0 0 0 0 0 0 0 0 0 0
0 0 0 0 0 0 0 0 0 0 0 0 0 0 0 0 0 0 0 0 0 0 0 0 0 0 0 0 0 0 0 0 0 0 0 0 0 0
CIN
-11 -0 -10 -5 -0 -0 -0 -0 -0 -0 -0 -0 -0 -0 -0 -0 -0 -0 -0 -0 -0 -0 -0 -0 -0 -0 -0 -0 -0 -0 -0 -0 -0 -0 -0 -0 -0 -0
-57 -4 -2 -25 -31 -0 -0 -0 -0 -0 -0 -0 -0 -0 -0 -0 -0 -0 -0 -0 -0 -0 -0 -0 -0 -0 -0 -0 -0 -0 -0 -0 -0 -0 -0 -0 -0 -0
-22 -73 -10 -26 -0 -0 -0 -0 -0 -0 -0 -0 -0 -0 -0 -0 -0 -0 -0 -0 -0 -0 -0 -0 -0 -0 -0 -0 -0 -0 -0 -0 -0 -0 -0 -0 -0 -0
-0 -0 -21 -10 -69 -0 -0 -0 -0 -0 -0 -0 -0 -0 -0 -0 -0 -0 -0 -0 -0 -0 -0 -0 -0 -0 -0 -0 -0 -0 -0 -0 -0 -0 -0 -0 -0 -0
-0 -0 -0 -13 -68 -0 -0 -0 -0 -0 -0 -0 -0 -0 -0 -0 -0 -0 -0 -0 -0 -0 -0 -0 -0 -0 -0 -0 -0 -0 -0 -0 -0 -0 -0 -0 -0 -0
-0 -0 -0 -0 -16 -0 -0 -0 -0 -0 -0 -0 -0 -0 -0 -0 -0 -0 -0 -0 -0 -0 -0 -0 -0 -0 -0 -0 -0 -0 -0 -0 -0 -0 -0 -0 -0 -0
-0 -0 -0 -0 -10 -0 -0 -0 -0 -0 -0 -0 -0 -0 -0 -0 -0 -0 -0 -0 -0 -0 -0 -0 -0 -0 -0 -0 -0 -0 -0 -0 -0 -0 -0 -0 -0 -0
-0 -0 -0 -0 -22 -0 -0 -0 -0 -0 -0 -0 -0 -0 -0 -0 -0 -0 -0 -0 -0 -0 -0 -0 -0 -0 -0 -0 -0 -0 -0 -0 -0 -0 -0 -0 -0 -0
-0 -0 -0 -0 -0 -0 -0 -0 -0 -0 -0 -0 -0 -0 -0 -0 -0 -0 -0 -0 -0 -0 -0 -0 -0 -0 -0 -0 -0 -0 -0 -0 -0 -0 -0 -0 -0 -0
-0 -0 -0 -0 -0 -0 -0 -0 -0 -0 -0 -0 -0 -0 -0 -0 -0 -0 -0 -0 -0 -0 -0 -0 -0 -0 -0 -0 -0 -0 -0 -0 -0 -0 -0 -0 -0 -0
-0 -0 -0 -0 -0 -0 -0 -0 -0 -0 -0 -0 -0 -0 -0 -0 -0 -0 -0 -0 -0 -0 -0 -0 -0 -0 -0 -0 -0 -0 -0 -0 -0 -0 -0 -0 -0 -0
-0 -0 -0 -0 -0 -0 -0 -0 -0 -0 -0 -0 -0 -0 -0 -0 -0 -0 -0 -0 -0 -0 -0 -0 -0 -0 -0 -0 -0 -0 -0 -0 -0 -0 -0 -0 -0 -0
-0 -0 -0 -0 -0 -0 -0 -0 -0 -0 -0 -0 -0 -0 -0 -0 -0 -0 -0 -0 -0 -0 -0 -0 -0 -0 -0 -0 -0 -0 -0 -0 -0 -0 -0 -0 -0 -0
-0 -0 -0 -0 -0 -0 -0 -0 -0 -0 -0 -0 -0 -0 -0 -0 -0 -0 -0 -0 -0 -0 -0 -0 -0 -0 -0 -0 -0 -0 -0 -0 -0 -0 -0 -0 -0 -0
-0 -0 -0 -0 -0 -0 -0 -0 -0 -0 -0 -0 -0 -0 -0 -0 -0 -0 -0 -0 -0 -0 -0 -0 -0 -0 -0 -0 -0 -0 -0 -0 -0 -0 -0 -0 -0 -0
-0 -0 -0 -0 -0 -0 -0 -0 -0 -0 -0 -0 -0 -0 -0 -0 -0 -0 -0 -0 -0 -0 -0 -0 -0 -0 -0 -0 -0 -0 -0 -0 -0 -0 -0 -0 -0 -0
-0 -0 -0 -0 -0 -0 -0 -0 -0 -0 -0 -0 -0 -0 -0 -0 -0 -0 -0 -0 -0 -0 -0 -0 -0 -0 -0 -0 -0 -0 -0 -0 -0 -0 -0 -0 -0 -0
-0 -0 -0 -0 -0 -0 -0 -0 -0 -0 -0 -0 -0 -0 -0 -0 -0 -0 -0 -0 -0 -0 -0 -0 -0 -0 -0 -0 -0 -0 -0 -0 -0 -0 -0 -0 -0 -0
-0 -0 -0 -0 -0 -0 -0 -0 -0 -0 -0 -0 -0 -0 -0 -0 -0 -0 -0 -0 -0 -0 -0 -0 -0 -0 -0 -0 -0 -0 -0 -0 -0 -0 -0 -0 -0 -0
-0 -0 -0 -0 -0 -0 -0 -0 -0 -0 -0 -0 -0 -0 -0 -0 -0 -0 -0 -0 -0 -0 -0 -0 -0 -0 -0 -0 -0 -0 -0 -0 -0 -0 -0 -0 -0 -0
-0 -0 -0 -0 -0 -0 -0 -0 -0 -0 -0 -0 -0 -0 -0 -0 -0 -0 -0 -0 -0 -0 -0 -0 -0 -0 -0 -0 -0 -0 -0 -0 -0 -0 -0 -0 -0 -0
-0 -0 -0 -0 -0 -0 -0 -0 -0 -0 -0 -0 -0 -0 -0 -0 -0 -0 -0 -0 -0 -0 -0 -0 -0 -0 -0 -0 -0 -0 -0 -0 -0 -0 -0 -0 -0 -0
-0 -0 -0 -0 -0 -0 -0 -0 -0 -0 -0 -0 -0 -0 -0 -0 -0 -0 -0 -0 -0 -0 -0 -0 -0 -0 -0 -0 -0 -0 -0 -0 -0 -0 -0 -0 -0 -0
Wind_Speed
46 46 45 46 45 49 46 41 43 42 41 43 35 32 26 22 18 16 13 10 8 7 5 7 8 8 9 10 12 12 12 14 16 17 19 20 22 24
50 49 49 49 51 50 48 45 42 44 45 39 40 34 27 22 19 16 15 10 8 7 6 4 6 7 9 10 12 12 12 14 16 17 19 20 22 23
52 56 54 49 46 44 44 49 50 45 44 39 37 30 26 24 20 16 14 10 10 8 6 5 3 6 7 9 11 12 12 14 16 17 19 20 21 23
49 53 58 47 46 45 43 43 45 45 40 37 29 33 31 26 21 18 14 12 10 9 6 6 4 6 6 8 10 11 12 13 15 17 18 20 22 23
34 57 50 47 44 40 41 42 40 41 40 39 33 29 30 29 24 19 16 14 11 9 8 5 5 4 5 8 10 11 12 14 15 16 18 20 21 23
36 36 38 43 43 39 37 34 33 35 39 32 34 28 29 25 23 23 18 14 12 9 7 7 6 5 6 8 10 10 12 14 15 17 18 19 21 23
45 31 35 41 43 44 38 31 31 33 37 30 30 29 30 29 27 21 18 15 12 10 9 9 7 6 7 8 10 10 11 14 15 16 19 18 21 23
42 18 13 28 30 33 33 34 30 33 33 27 30 31 28 25 23 22 19 16 15 12 11 11 9 9 10 10 9 10 12 14 15 16 17 17 20 23
20 14 9 12 23 25 25 24 24 31 27 24 26 28 24 23 21 19 17 17 14 12 13 12 10 9 10 10 9 10 12 13 14 16 17 18 20 22
13 10 4 9 15 20 20 18 20 26 24 22 21 19 19 20 20 19 18 13 8 12 12 12 12 13 9 10 10 11 11 12 14 15 16 18 19 21
14 7 5 7 15 20 17 15 15 17 18 16 13 14 16 17 18 16 17 16 13 12 13 12 13 12 11 11 13 10 11 13 14 16 16 17 18 20
8 6 9 9 13 16 14 15 14 14 13 11 10 10 15 18 19 17 17 17 14 12 15 14 11 12 15 16 11 11 12 12 14 15 16 16 17 20
7 6 3 8 10 7 8 10 11 10 8 8 9 11 11 14 15 13 13 15 14 15 12 12 12 11 14 13 13 11 11 13 14 15 16 15 16 19
7 5 3 3 5 5 5 7 7 8 8 10 10 10 11 13 12 11 12 12 14 13 8 9 13 11 13 14 14 12 12 13 13 15 16 16 16 18
8 8 8 7 5 3 7 8 7 7 8 10 10 9 8 10 10 10 10 9 11 10 6 10 11 10 11 14 15 14 12 15 14 14 16 16 16 18
7 8 8 6 6 3 3 3 4 6 8 8 9 8 9 10 10 10 10 10 10 10 11 12 11 10 14 15 16 14 14 17 14 15 16 18 18 17
6 5 5 4 3 2 1 1 3 5 6 8 8 8 8 8 8 8 8 9 11 10 11 11 11 12 13 13 17 14 14 17 13 14 17 19 19 18
2 2 3 3 3 4 5 6 6 7 7 6 6 5 5 6 6 7 8 8 9 9 10 12 12 14 17 19 19 16 16 17 17 16 18 20 22 21
9 4 4 6 6 7 5 5 5 5 4 4 5 5 6 7 7 7 8 9 11 12 13 12 12 15 19 22 19 17 17 18 17 17 18 20 22 22
16 12 10 9 8 6 5 4 4 4 4 5 5 5 5 7 8 9 10 11 12 13 13 13 14 16 19 20 20 19 16 17 18 18 19 20 21 23
14 12 11 10 9 9 8 7 6 6 6 6 6 6 6 7 10 11 11 11 12 13 15 16 16 15 16 17 21 21 19 19 17 17 19 22 24 24
15 13 12 11 11 10 9 9 8 8 8 8 8 8 8 9 10 11 11 12 14 16 18 17 15 16 18 20 21 20 19 18 18 18 18 20 23 27
14 13 12 12 11 11 10 9 9 9 9 9 9 9 9 10 11 11 12 14 15 16 17 17 17 18 19 20 19 19 18 18 19 20 21 20 21 21
Wind_Direction
275 268 260 257 257 252 256 250 255 255 253 250 248 241 235 231 230 234 232 223 241 239 260 282 293 305 314 318 313 316 324 330 331 334 337 342 346 346
276 270 262 258 257 254 251 249 250 253 255 252 248 239 230 229 223 225 230 232 221 224 239 257 281 292 300 306 303 311 320 326 329 333 336 340 343 345
273 271 264 258 254 250 249 250 247 247 252 255 247 232 223 227 227 227 231 229 228 226 224 243 266 286 297 299 297 304 313 320 325 329 334 338 341 344
275 269 263 257 250 250 249 246 247 244 243 243 239 229 229 229 227 225 229 237 234 228 221 230 238 276 286 295 297 303 310 316 321 325 330 335 339 343
258 257 266 259 246 243 242 247 243 243 235 242 239 233 228 225 223 231 230 231 236 215 210 215 232 253 275 292 298 306 312 313 318 323 326 332 338 341
270 258 250 251 244 234 239 231 233 232 232 236 233 226 223 220 220 221 227 228 221 211 209 225 236 251 278 290 298 305 308 312 318 322 327 332 338 340
284 255 243 233 242 231 226 218 217 227 227 229 227 222 224 221 222 219 220 215 229 217 212 219 227 251 276 289 298 305 312 314 318 323 326 334 338 341
259 292 237 201 196 203 207 198 203 220 226 224 225 222 223 211 221 217 214 210 227 221 212 227 234 250 273 284 296 304 306 313 320 325 333 336 339 341
298 292 282 209 184 189 188 198 207 220 212 213 218 219 211 206 206 211 206 209 219 202 205 234 237 248 268 282 295 303 306 314 323 329 332 335 339 343
321 316 105 164 183 192 181 185 209 215 220 217 203 199 206 208 207 200 192 199 202 194 211 245 242 258 261 278 286 296 309 315 320 328 335 337 340 343
332 334 93 186 165 153 166 186 195 213 199 197 199 207 210 205 192 181 186 190 219 223 225 254 249 260 262 273 283 297 309 313 316 323 331 336 340 342
306 2 68 112 138 154 160 159 165 190 198 217 223 202 173 182 177 186 187 201 213 238 230 252 243 258 273 277 279 294 303 311 316 324 330 334 338 341
345 18 58 97 106 150 160 168 183 168 171 171 181 165 181 182 199 213 202 192 207 251 227 241 252 253 283 296 280 282 297 307 315 321 325 329 335 339
1 16 36 105 104 128 145 153 177 196 173 166 168 173 180 199 215 211 221 224 237 257 183 216 266 253 273 290 298 288 291 303 310 317 322 325 329 334
25 50 60 72 85 114 118 125 147 171 162 172 189 188 196 210 215 219 224 229 245 258 233 251 271 266 274 288 295 296 292 295 304 312 318 322 325 328
28 42 53 64 69 113 105 125 131 166 167 170 202 214 222 223 221 226 226 229 243 259 272 273 274 276 284 291 295 295 293 304 294 304 314 322 324 326
16 13 21 42 65 67 68 187 212 222 217 218 216 216 225 227 233 238 232 242 254 253 268 282 288 293 295 290 295 294 292 303 303 304 312 317 322 323
325 308 244 242 250 253 248 245 244 237 234 227 226 223 226 235 241 256 257 257 252 259 267 278 283 290 295 299 301 294 296 299 306 303 308 311 315 318
11 318 287 267 268 271 275 270 265 263 264 260 261 260 261 265 265 270 269 272 275 275 277 281 282 288 288 290 300 302 297 299 302 302 305 309 312 317
33 26 15 8 355 346 335 332 326 312 306 301 294 288 283 279 278 280 281 281 282 283 284 285 286 288 291 294 299 304 303 298 299 299 303 310 314 319
8 6 0 350 339 336 338 341 338 328 324 317 309 301 296 293 292 292 290 288 288 290 287 288 291 297 303 307 303 304 303 306 303 301 304 307 308 311
13 14 16 17 7 1 351 344 338 331 328 323 317 311 306 304 301 299 295 291 291 296 297 299 298 296 295 294 295 300 302 306 310 309 309 309 309 308
8 10 12 11 7 3 358 354 347 340 335 328 322 317 312 308 310 307 304 300 297 298 301 302 303 300 298 297 297 300 301 301 303 305 308 312 313 317